Location: Budapest
(47.4979°N, 19.0402°E)
Time: 16:55:32
(UTC+02:00)

ISS - Visible Passes

Search period start: 09 May 2021 00:00
Search period end: 19 May 2021 00:00
Orbit: 418 x 421 km, 51.6° (Epoch: 09 May)

Date Brightness Start Highest point End Pass type
(mag) Time Alt. Az. Time Alt. Az. Time Alt. Az.
09 May -3.0 02:03:26 53° N 02:03:26 53° N 02:06:31 10° ENE visible
09 May -2.4 03:37:10 10° WNW 03:40:23 39° N 03:43:36 10° ENE visible
10 May -1.8 01:17:26 26° ENE 01:17:26 26° ENE 01:19:05 10° ENE visible
10 May -2.4 02:50:22 15° WNW 02:52:50 39° N 02:56:03 10° ENE visible
10 May -3.2 04:26:37 10° WNW 04:30:00 64° NNE 04:33:22 10° ESE visible
11 May -0.9 00:31:25 12° ENE 00:31:25 12° ENE 00:31:39 10° ENE visible
11 May -2.5 02:04:20 32° NW 02:05:17 40° N 02:08:31 10° ENE visible
11 May -2.8 03:39:11 10° WNW 03:42:30 50° NNE 03:45:49 10° E visible
12 May -2.5 01:18:15 41° NNE 01:18:15 41° NNE 01:21:02 10° ENE visible
12 May -2.5 02:51:43 10° WNW 02:54:58 43° N 02:58:14 10° E visible
12 May -3.8 04:28:34 10° WNW 04:31:56 67° SSW 04:35:17 10° SE visible
13 May -1.7 00:32:05 23° NE 00:32:05 23° NE 00:33:34 10° ENE visible
13 May -2.4 02:05:00 15° WNW 02:07:26 39° N 02:10:39 10° ENE visible
13 May -3.7 03:41:07 10° WNW 03:44:30 86° NNE 03:47:53 10° ESE visible
13 May -1.1 23:45:42 13° ENE 23:45:42 13° ENE 23:46:06 10° ENE visible
14 May -2.3 01:18:35 27° NW 01:19:52 39° N 01:23:04 10° ENE visible
14 May -3.3 02:53:39 10° WNW 02:57:01 64° NNE 03:00:23 10° ESE visible
14 May -2.9 04:30:41 10° W 04:33:41 29° SW 04:36:39 10° SSE visible
14 May -2.2 21:16:36 10° S 21:18:51 17° SE 21:21:07 10° E visible
14 May -3.9 22:51:53 10° WSW 22:55:16 86° SSE 22:58:39 10° ENE visible
15 May -2.4 00:29:05 10° WNW 00:32:18 40° N 00:35:32 10° ENE visible
15 May -2.9 02:06:12 10° WNW 02:09:31 51° NNE 02:12:49 10° E visible
15 May -3.5 03:43:05 10° WNW 03:46:19 44° SSW 03:49:34 10° SE visible
15 May -3.8 22:04:32 10° SW 22:07:50 59° SSE 22:11:11 10° ENE visible
15 May -2.7 23:41:30 10° W 23:44:45 45° N 23:48:01 10° ENE visible
16 May -2.6 01:18:43 10° WNW 01:21:58 43° N 01:25:13 10° E visible
16 May -3.9 02:55:34 10° WNW 02:58:56 67° SSW 03:02:17 10° SE visible
16 May -3.3 21:17:17 10° SW 21:20:27 39° SE 21:23:37 10° ENE visible
16 May -3.0 22:53:54 10° W 22:57:13 54° NNW 23:00:33 10° ENE visible
17 May -2.4 00:31:12 10° WNW 00:34:25 39° N 00:37:37 10° ENE visible
17 May -3.8 02:08:05 10° WNW 02:11:29 86° NNE 02:14:52 10° ESE visible
17 May -2.4 03:45:27 10° W 03:47:57 19° SW 03:50:26 10° S visible
17 May -3.5 22:06:21 10° WSW 22:09:42 70° NNW 22:13:05 10° ENE visible
17 May -2.3 23:43:38 10° WNW 23:46:50 39° N 23:49:57 11° ENE visible
18 May -2.5 01:20:38 10° WNW 01:22:50 36° NW 01:22:50 36° NW visible
18 May -3.8 21:18:51 10° WSW 21:22:13 86° SSE 21:25:37 10° ENE visible
18 May -2.4 22:56:02 10° WNW 22:59:16 40° N 23:02:29 10° ENE visible
